Flag for Taiwan Weather past 2 weeks in Taichung, Taiwan

Now
91 °F

Passing clouds.


Feels Like: 100 °F
Forecast: 83 / 96 °F
Wind: 14 mph from East

Location: Chiang Kai Shek

Current Time: Sep 15, 2014 at 6:39:26 PM

Latest Report: Sep 15, 2014 at 6:00 PM


Visibility: N/A

Pressure: 29.62 "Hg

Humidity: 56%

Dew point: 73 °F

Location of TaichungLocation

Historic Weather in Taichung — Graph

°F

Taichung temperature yesterday

Maximum temperature yesterday: 95 °F (at 10:00 AM)
Minimum temperature yesterday: 79 °F (at 2:00 AM)
Average temperature yesterday: 88 °F

Past Weeks' High & Low Weather Summary

 TemperatureHumidityPressure
High100 °F (Sep 15, 12:30 PM)89% (Aug 31, 10:30 PM)29.89 "Hg (Aug 31, 10:30 PM)
Low79 °F (Sep 1, 2:30 AM)39% (Sep 15, 11:00 AM)29.56 "Hg (Sep 15, 6:30 AM)
Average86 °F69%29.76 "Hg
* Reported Aug 31 5:00 PM — Sep 15 5:30 PM, Taichung, Weather by CustomWeather, © 2014

Note: Actual official high and low records may vary slightly from our data, if they occured in-between our weather recording intervals... More about our weather records

Advertising

Taichung weather history for previous 24 hours

 ConditionsComfort  
Time TempWeatherWind HumidityBarometerVisibility
5:30 PM
Sep 15
93 °FPassing clouds.14 mph53%29.62 "HgN/A
5:00 PM95 °FPassing clouds.15 mph50%29.59 "HgN/A
4:30 PM95 °FPassing clouds.17 mph50%29.59 "HgN/A
4:00 PM97 °FPassing clouds.17 mph44%29.59 "HgN/A
3:30 PM99 °FPassing clouds.16 mph44%29.59 "HgN/A
3:00 PM99 °FPassing clouds.20 mph42%29.59 "HgN/A
2:30 PM99 °FScattered clouds.18 mph42%29.59 "HgN/A
2:00 PM99 °FScattered clouds.22 mph42%29.59 "HgN/A
1:30 PM99 °FScattered clouds.23 mph42%29.59 "HgN/A
1:00 PM99 °FScattered clouds.25 mph42%29.59 "HgN/A
12:30 PM100 °FScattered clouds.28 mph40%29.59 "HgN/A
12:00 PM99 °FScattered clouds.28 mph39%29.59 "HgN/A
11:30 AM99 °FScattered clouds.30 mph39%29.59 "HgN/A
11:00 AM99 °FScattered clouds.30 mph39%29.59 "HgN/A
10:30 AM95 °FScattered clouds.30 mph44%29.59 "HgN/A
10:00 AM93 °FScattered clouds.28 mph47%29.59 "HgN/A
9:30 AM95 °FScattered clouds.28 mph47%29.59 "HgN/A
9:00 AM93 °FScattered clouds.26 mph47%29.59 "HgN/A
8:30 AM93 °FScattered clouds.31 mph47%29.59 "HgN/A
8:00 AM91 °FPartly sunny.31 mph52%29.59 "HgN/A
7:30 AM90 °FScattered clouds.32 mph55%29.59 "HgN/A
7:00 AM88 °FScattered clouds.36 mph62%29.56 "HgN/A
6:30 AM88 °FScattered clouds.36 mph62%29.56 "HgN/A
6:00 AM86 °FScattered clouds.30 mph66%29.59 "HgN/A
5:30 AM86 °FPassing clouds.32 mph66%29.59 "HgN/A
5:00 AM86 °FPassing clouds.33 mph66%29.59 "HgN/A
4:30 AM86 °FPassing clouds.30 mph70%29.62 "HgN/A
4:00 AM86 °FPassing clouds.31 mph66%29.62 "HgN/A
3:30 AM86 °FPassing clouds.29 mph66%29.62 "HgN/A
3:01 AM86 °FPassing clouds.25 mph66%29.62 "HgN/A
2:30 AM86 °FPassing clouds.28 mph66%29.65 "HgN/A
2:00 AM86 °FPassing clouds.29 mph66%29.62 "HgN/A
1:30 AM86 °FPassing clouds.28 mph66%29.65 "HgN/A
1:00 AM86 °FPassing clouds.28 mph66%29.65 "HgN/A
12:30 AM86 °FPassing clouds.26 mph66%29.65 "HgN/A
12:00 AM86 °FPassing clouds.31 mph66%29.68 "HgN/A
11:30 PM
Sep 14
86 °FPassing clouds.28 mph66%29.68 "HgN/A
11:00 PM86 °FPassing clouds.26 mph70%29.68 "HgN/A
10:30 PM84 °FPassing clouds.30 mph79%29.71 "HgN/A
10:00 PM86 °FPassing clouds.26 mph70%29.71 "HgN/A
9:30 PM86 °FPassing clouds.24 mph70%29.74 "HgN/A
9:00 PM86 °FPassing clouds.22 mph75%29.74 "HgN/A
8:30 PM86 °FPassing clouds.24 mph70%29.71 "HgN/A
8:00 PM86 °FPassing clouds.24 mph66%29.71 "HgN/A
7:30 PM86 °FPassing clouds.25 mph66%29.71 "HgN/A
7:00 PM86 °FPassing clouds.22 mph66%29.71 "HgN/A
6:30 PM88 °FPassing clouds.24 mph62%29.68 "HgN/A
6:00 PM88 °FPassing clouds.26 mph62%29.68 "HgN/A
Weather by CustomWeather, © 2014

See weather overviewHow to use our weather pages